Theta_e
320 321 320 320 320 320 320 320 319 319 319 321 324 325 323 324 329 328 322 319 318 315 314 312 311 311 310 309 308 308 308 307 307 306 305 305 305 304 304 304 304 304 304 304 304 304 303 303 303 303 304 304 304 304 305 306 308 312 315 317 319 322 324 325 326 327 326 326 327 327 327 326 326 325 326 325 325 325 324 323 321 322 323 323 323 324 326
320 320 319 318 318 318 318 318 318 317 317 318 319 321 321 320 320 319 316 315 314 313 311 310 309 309 309 308 307 307 307 307 306 305 304 304 304 303 303 303 303 303 303 303 303 303 303 303 302 302 303 303 303 303 304 305 306 309 311 314 315 317 320 322 325 326 325 325 326 327 326 326 325 325 325 325 325 324 322 321 321 322 323 323 323 324 325
321 319 317 317 316 316 316 317 316 316 316 315 316 317 318 318 316 314 313 313 312 310 309 308 307 307 308 308 307 307 306 306 306 305 304 303 303 302 302 302 302 302 302 303 303 303 302 302 302 302 302 302 303 303 303 304 305 306 308 311 313 314 316 321 324 325 325 325 326 326 326 326 326 325 325 325 323 321 321 320 321 322 322 323 324 324 323
320 317 316 316 316 316 316 316 316 316 316 315 315 314 315 317 317 315 314 314 312 309 308 307 306 306 306 307 307 306 306 305 305 304 303 302 302 302 301 301 301 301 301 302 302 302 302 302 302 302 301 302 302 302 303 304 304 305 306 308 310 311 313 318 322 323 324 325 325 326 326 326 325 325 324 323 321 320 320 320 320 320 320 321 321 321 321
320 318 317 318 320 322 319 316 315 315 314 314 313 312 313 314 315 315 315 313 310 308 307 306 306 305 305 306 306 306 305 305 304 303 302 301 301 301 301 301 301 301 301 301 301 301 301 301 301 301 301 301 301 302 303 303 304 305 305 306 307 309 310 314 317 319 323 325 325 326 326 325 325 324 323 321 320 320 319 318 318 318 318 318 318 318 319
321 318 319 321 323 324 318 314 314 313 312 312 312 312 312 312 312 312 311 310 308 307 306 306 305 305 305 305 304 304 304 304 304 303 302 302 301 301 301 301 301 301 300 300 300 300 300 300 300 301 301 301 301 301 302 303 303 304 304 304 306 307 308 310 312 315 320 323 324 325 325 324 324 323 321 319 318 318 317 317 316 316 316 316 316 316 317
322 319 320 321 321 318 314 312 311 310 310 310 310 310 310 310 311 310 309 308 306 305 304 304 305 304 304 303 303 303 303 303 303 303 303 302 301 301 300 300 300 300 300 300 300 300 300 300 300 300 300 300 300 301 301 302 302 303 303 304 304 305 306 308 308 311 315 318 321 322 323 324 323 321 320 318 315 314 314 314 314 314 314 314 314 314 314
320 320 321 320 317 314 312 312 311 310 311 311 311 311 309 309 310 310 309 307 305 304 304 303 303 303 302 302 303 303 303 303 303 303 303 302 301 300 300 300 300 300 300 300 300 300 300 301 300 300 300 300 300 300 300 301 302 302 303 303 303 304 305 306 307 307 308 311 315 316 318 321 321 318 317 316 313 311 311 311 311 312 311 311 312 311 311
317 319 318 317 316 314 313 312 311 311 311 311 311 311 309 308 308 309 308 307 305 304 304 303 303 303 302 302 302 302 302 302 301 301 302 301 300 300 300 300 300 300 301 300 301 301 301 301 301 300 300 300 300 300 300 300 301 301 302 302 303 303 304 304 306 307 306 307 309 310 311 313 315 314 313 311 310 309 309 307 307 307 307 307 307 308 309
314 316 316 315 316 316 314 311 310 309 309 310 310 310 309 307 306 307 308 307 306 305 305 305 305 305 303 302 302 301 301 301 300 300 300 300 300 300 300 300 300 300 300 301 300 300 301 301 301 301 301 301 300 300 300 300 300 300 301 301 301 302 303 303 304 306 306 306 306 307 307 308 309 310 309 308 307 307 306 305 303 303 304 304 304 305 306
315 316 316 315 316 315 311 309 309 308 308 310 311 311 311 307 304 304 305 306 306 306 305 306 306 306 304 302 301 301 301 301 300 300 300 300 300 300 300 300 300 300 300 300 300 300 300 300 301 302 301 301 301 300 300 300 300 300 300 300 301 301 302 303 303 304 306 306 306 306 306 306 307 307 307 306 305 305 304 304 302 302 302 302 302 302 302
315 315 314 312 313 312 309 308 308 308 308 310 313 315 312 306 302 301 302 302 303 303 303 304 304 304 302 301 300 300 300 300 300 301 301 301 301 300 300 300 300 300 300 300 300 300 300 300 301 301 301 302 301 301 301 300 300 300 300 300 300 301 302 302 303 303 304 305 306 306 306 306 306 306 306 305 305 304 303 302 301 301 301 301 301 300 300
313 312 311 310 310 309 308 308 308 309 309 311 314 314 309 302 300 300 299 299 300 300 300 301 301 300 300 300 300 299 300 300 300 300 300 300 300 300 300 300 300 299 299 299 299 300 300 300 300 300 301 301 301 301 301 301 300 300 300 300 300 301 301 302 302 302 302 303 304 305 306 306 306 306 305 305 304 304 303 302 301 301 300 300 300 300 300
312 311 310 310 310 308 306 307 308 308 311 313 311 306 303 300 299 299 299 298 299 299 299 299 298 298 299 300 300 300 300 300 300 300 300 300 300 300 299 299 299 299 299 299 299 300 300 300 300 300 300 300 300 301 301 301 301 301 300 300 299 300 301 301 301 301 301 302 302 303 304 306 306 305 305 304 303 303 303 303 302 301 300 300 300 299 299
312 311 310 311 312 307 305 307 308 307 309 309 304 301 300 300 299 299 299 299 299 298 298 298 298 299 300 300 300 300 300 300 300 300 300 300 300 300 299 299 299 298 298 298 299 300 300 300 300 300 300 300 300 300 300 301 301 301 301 301 300 300 300 300 300 300 300 301 302 302 302 303 303 303 304 304 303 303 302 302 302 301 301 300 300 299 299
310 310 310 310 309 305 303 306 307 306 305 304 301 300 301 300 300 300 300 300 300 299 299 299 300 300 300 300 300 300 300 300 300 299 299 299 299 299 299 298 298 298 298 298 299 299 300 300 300 300 300 300 300 300 300 300 301 301 301 301 301 300 300 300 299 299 300 300 301 301 302 302 302 302 302 303 304 304 303 303 302 301 301 301 301 300 300
307 308 307 306 305 304 303 303 303 302 302 302 301 301 300 300 301 301 300 300 300 300 300 300 300 300 300 300 300 300 300 299 299 299 299 299 299 299 299 299 298 298 298 298 298 299 299 299 300 300 300 300 300 300 300 300 300 301 301 301 301 301 301 300 300 299 298 299 299 300 301 301 301 301 301 302 302 303 303 304 303 302 301 301 301 301 301
307 306 306 304 304 303 303 302 302 302 301 301 301 301 301 301 301 300 300 300 300 299 299 300 300 300 300 300 300 300 299 299 299 299 299 299 299 299 299 299 299 299 298 298 298 298 298 298 299 299 299 300 299 300 300 300 300 300 300 300 300 301 301 301 300 300 298 297 298 298 299 300 300 300 300 301 301 301 302 303 303 303 302 301 301 301 301
307 307 306 304 303 303 302 302 302 302 301 301 301 301 301 301 300 300 300 299 299 299 299 299 300 300 300 300 300 300 299 299 299 299 299 299 299 299 299 299 299 299 299 299 298 298 298 297 297 298 299 300 299 300 300 300 300 299 299 299 300 300 300 300 300 300 298 297 297 297 298 298 299 299 300 300 300 300 300 301 302 302 302 301 301 301 301
306 306 305 304 303 302 302 302 302 302 302 301 301 301 300 300 300 300 300 300 300 300 300 299 300 300 300 300 301 300 299 299 299 299 299 299 299 300 300 299 299 299 299 299 299 299 298 297 297 298 299 300 299 300 300 300 300 300 300 299 299 299 300 300 299 299 298 298 297 296 297 297 298 299 299 300 300 300 300 300 301 301 301 301 301 300 301
306 306 305 304 303 302 302 302 301 301 301 301 301 301 300 300 300 300 300 300 300 300 300 299 300 302 301 300 300 300 299 299 299 299 299 299 299 300 300 300 299 299 298 298 299 298 297 297 297 298 299 300 300 300 300 299 300 300 299 299 299 299 299 300 300 299 299 298 297 297 296 296 297 297 298 299 299 300 300 300 300 301 301 301 300 300 300
307 306 305 304 304 303 302 302 301 301 301 300 301 301 300 301 301 300 301 301 299 299 300 299 299 301 300 299 299 299 299 299 299 299 299 299 299 299 300 299 298 297 296 297 297 297 297 297 297 298 299 299 299 299 300 299 299 299 299 299 299 299 299 299 299 299 299 299 298 297 297 297 296 296 296 297 297 298 299 299 299 298 298 299 299 299 298
306 305 304 304 304 303 302 302 301 301 300 300 301 301 301 301 300 299 300 302 301 300 300 299 299 298 298 298 299 298 298 299 299 299 299 299 299 299 299 297 296 295 296 296 296 296 297 297 297 298 299 299 299 299 300 299 299 299 299 299 298 299 298 298 299 300 299 299 298 298 297 297 297 296 296 296 296 296 296 297 296 297 297 297 297 297 297
304 304 304 304 304 303 302 302 302 301 300 300 301 301 300 299 299 299 299 300 302 301 299 299 300 299 298 299 299 298 299 299 299 299 299 298 298 297 296 295 295 295 295 296 297 297 297 297 297 298 298 299 299 299 299 299 299 299 300 299 298 298 298 298 298 299 299 299 299 298 297 297 297 296 296 295 295 295 295 295 296 296 296 296 296 296 296
303 303 303 304 304 304 302 302 301 301 300 301 301 301 300 299 300 300 299 299 300 300 299 299 300 300 300 300 299 299 299 299 298 298 297 296 295 295 294 295 295 294 295 296 297 297 297 297 297 298 298 298 299 299 299 300 300 300 299 299 298 298 298 298 298 298 298 298 298 298 298 298 297 297 296 296 295 295 295 295 295 296 296 296 296 296 296
302 301 301 302 303 303 302 302 302 301 301 301 300 300 300 300 300 300 301 300 300 300 300 300 301 301 300 300 300 299 299 298 297 297 296 295 295 295 294 295 295 294 295 296 297 297 297 297 297 297 298 298 298 299 299 299 300 300 300 299 298 298 297 297 298 297 297 298 298 298 297 298 298 297 297 296 296 296 295 295 295 295 295 296 296 296 296
301 300 300 301 301 301 301 302 301 301 301 301 301 300 301 301 301 301 301 301 301 301 301 301 301 301 301 300 299 298 297 297 296 295 295 295 295 295 295 295 295 295 295 296 297 297 297 297 297 297 297 297 298 298 299 299 299 300 300 299 299 298 297 296 297 297 297 298 298 297 297 297 298 298 297 297 296 296 295 295 295 295 295 295 296 296 296
304 302 300 301 302 301 301 300 299 299 300 300 301 301 301 300 301 300 300 300 300 300 301 301 301 301 300 299 298 297 297 296 295 294 294 294 294 294 294 295 295 295 296 296 296 297 297 297 297 297 297 297 297 298 299 299 299 299 300 299 299 299 297 296 296 297 298 298 298 297 297 297 297 298 298 297 296 295 295 295 295 295 295 295 295 295 296
305 303 299 299 299 299 299 299 299 299 299 299 300 300 300 300 301 301 299 299 300 300 300 300 300 300 299 299 298 297 296 295 295 294 294 294 294 294 294 294 295 295 295 295 295 295 295 297 297 297 297 297 297 297 298 299 299 299 299 299 299 299 297 296 296 297 297 298 297 297 297 297 297 297 298 298 297 296 295 295 295 295 294 294 295 295 295
303 302 301 299 297 297 299 301 302 301 300 298 298 298 298 298 301 302 299 297 299 299 299 299 299 298 298 298 298 297 297 296 295 295 294 294 295 295 294 295 295 294 294 295 294 294 295 297 297 297 297 297 297 297 298 298 299 299 299 299 299 298 296 296 296 296 297 297 297 297 297 297 297 297 297 297 298 297 296 296 295 295 294 295 295 295 295
302 303 304 303 301 300 302 304 304 303 301 298 297 298 299 299 303 304 300 297 298 299 298 298 298 298 298 298 297 297 297 296 295 295 295 295 295 295 295 295 294 294 294 295 294 294 296 297 297 297 297 297 297 297 297 298 299 299 299 299 299 298 297 297 296 297 297 297 297 297 297 297 297 297 296 296 297 297 296 296 295 295 294 294 295 295 295
302 303 304 304 303 303 304 304 304 304 303 301 300 300 300 300 302 303 300 298 298 299 299 298 298 298 297 297 296 296 295 295 295 295 295 295 295 295 295 295 294 294 294 294 294 296 297 298 297 297 297 297 297 297 297 297 298 298 299 299 299 299 298 298 298 298 298 297 297 297 297 297 296 297 296 296 296 296 296 296 295 294 294 294 294 294 294
304 303 303 303 303 303 303 303 303 303 303 302 300 299 298 298 299 299 299 299 299 300 299 299 298 298 297 296 296 296 295 295 295 295 295 295 295 295 295 295 295 294 294 294 295 297 297 296 296 297 296 296 296 296 297 297 297 298 299 299 299 299 298 298 298 298 298 297 297 297 297 297 296 296 296 296 296 296 296 295 295 294 294 294 294 294 294
303 303 303 302 302 302 302 304 304 303 302 300 298 297 298 299 299 299 299 299 300 300 300 299 298 298 297 296 296 296 295 295 295 295 295 295 295 295 295 295 295 295 294 294 296 298 296 295 296 296 296 296 296 296 297 297 298 298 299 299 298 298 298 298 298 298 297 297 297 297 297 297 296 296 296 295 295 295 295 295 294 294 294 294 294 294 294
300 299 299 299 299 299 299 301 301 301 302 301 299 297 298 299 299 299 299 299 299 300 300 299 298 298 298 297 296 296 296 296 295 295 295 295 295 295 295 295 295 295 294 294 296 298 296 295 296 296 296 296 297 297 298 298 298 298 298 298 298 298 298 298 298 297 296 296 297 296 296 296 296 296 295 295 295 295 295 295 294 294 294 294 294 293 293
298 297 296 297 298 298 299 299 299 298 299 299 298 298 298 299 299 300 299 299 300 299 299 299 299 298 298 297 297 297 297 296 296 296 295 295 295 295 295 295 295 295 294 294 296 297 296 294 295 297 296 296 298 298 298 298 298 298 298 298 298 298 298 298 297 297 296 296 297 297 296 296 295 295 295 295 294 295 295 295 294 294 294 294 294 293 293
298 298 298 298 299 299 299 299 299 299 299 299 298 299 299 299 299 300 299 300 300 300 299 299 299 298 298 298 298 298 297 297 297 297 296 296 295 295 295 295 295 295 294 294 296 297 296 294 295 297 297 297 297 297 297 297 297 298 298 297 297 297 297 297 297 296 296 296 297 296 296 296 295 295 295 295 294 294 295 295 294 294 294 294 294 293 293
299 299 299 299 299 300 299 299 299 299 299 299 299 299 299 299 300 300 300 300 300 300 300 300 299 299 299 298 298 298 298 298 298 298 297 296 296 295 296 295 295 295 295 295 296 297 295 294 295 297 297 297 297 297 297 297 297 297 297 298 297 297 297 297 297 296 296 296 296 296 296 296 295 295 295 295 294 294 294 294 294 294 294 294 293 293 293
299 299 299 300 299 299 299 299 300 299 299 299 299 299 300 300 300 300 300 300 300 300 300 300 300 299 299 298 298 298 298 298 298 298 298 297 296 296 296 296 296 296 296 295 296 296 294 294 295 296 297 297 297 297 297 297 297 297 297 297 297 297 297 297 297 296 296 296 296 296 296 296 295 295 295 295 294 294 295 294 294 294 294 293 293 293 293
298 299 299 300 299 299 299 299 299 299 299 300 300 300 300 300 300 300 301 301 300 300 300 300 300 299 299 298 298 299 299 299 299 299 298 298 297 296 296 296 296 296 295 293 293 294 294 294 295 296 296 296 296 296 296 296 296 297 297 297 297 297 297 297 297 297 296 296 296 296 296 295 295 295 295 295 294 294 294 294 294 294 294 293 293 293 293
299 299 299 299 299 299 300 299 299 299 299 300 300 300 300 300 300 300 301 300 300 300 300 300 300 299 299 299 299 299 299 299 299 299 299 299 297 296 296 297 296 295 294 292 292 292 293 294 295 296 296 295 294 294 294 294 294 295 296 297 297 297 297 296 296 295 296 296 296 296 296 296 295 295 295 295 295 294 294 294 294 294 294 294 294 293 293
299 299 299 300 299 299 299 299 299 299 299 300 300 300 300 300 300 300 300 300 300 300 300 300 299 300 300 299 299 299 299 299 299 299 299 299 298 297 297 297 296 294 292 291 291 291 292 293 294 295 296 295 293 292 293 293 293 293 294 295 295 295 294 294 294 294 295 295 296 296 296 296 295 294 294 295 295 295 295 295 295 295 294 294 294 293 293
299 299 299 299 299 299 299 299 299 299 299 299 299 299 299 299 300 300 300 300 300 300 300 300 300 300 300 299 299 299 299 299 299 299 299 299 298 298 298 298 296 294 292 291 291 292 292 293 294 295 296 295 293 292 292 292 292 293 294 294 294 294 293 294 295 295 295 295 296 296 296 295 295 294 294 294 295 295 294 294 294 295 295 294 294 293 293
300 299 299 299 299 299 299 299 299 299 299 299 299 299 299 299 300 300 300 300 300 300 300 300 299 300 300 299 299 299 299 299 299 299 298 298 298 298 298 298 297 294 292 292 292 292 292 292 293 294 294 293 293 293 292 291 291 292 293 293 293 293 293 294 295 295 295 295 295 296 296 295 295 295 294 294 294 294 294 293 294 295 295 294 294 294 293
299 299 299 299 299 298 299 299 299 299 298 298 299 299 299 299 299 300 300 300 300 300 300 300 300 300 300 299 299 299 299 299 299 299 298 298 297 297 297 297 296 294 293 292 292 291 291 291 291 292 292 291 291 292 292 291 290 291 292 292 293 293 293 293 294 295 295 295 295 295 295 295 295 295 295 294 294 294 294 293 294 294 295 294 294 294 293
300 299 300 299 299 299 299 299 298 298 298 298 299 299 299 299 300 299 299 299 300 300 300 299 299 300 299 299 299 299 299 299 299 298 298 298 297 297 296 295 293 293 293 293 291 291 292 292 291 290 290 290 289 290 290 290 289 290 291 292 292 293 293 293 293 294 295 295 295 295 295 295 295 295 295 295 294 294 294 294 294 294 295 294 294 293 293
300 299 299 299 299 299 299 298 298 298 299 299 299 299 299 299 299 299 299 299 299 299 299 299 299 299 299 299 299 299 299 299 298 298 298 297 297 297 296 294 292 292 293 293 292 291 292 292 291 291 290 290 289 288 287 287 288 289 291 292 292 292 293 293 293 294 294 295 295 295 295 294 295 295 295 295 295 294 294 294 294 294 294 294 294 294 293
299 299 299 299 299 298 298 298 299 299 299 299 299 299 299 299 299 299 299 299 299 299 299 299 299 299 299 299 299 299 298 298 298 298 298 297 297 297 297 295 293 292 293 294 294 293 292 292 292 292 291 291 291 290 289 289 289 290 291 292 292 292 293 293 293 294 295 295 295 295 295 294 294 295 295 295 295 294 294 294 293 294 294 294 294 294 294
299 299 299 299 299 299 298 299 299 299 299 299 299 299 299 299 299 299 299 298 298 299 299 299 299 299 299 299 298 298 298 298 297 297 297 297 297 297 296 295 294 293 294 295 295 295 293 292 292 292 291 291 292 292 292 292 292 292 292 292 292 292 292 292 292 294 295 295 295 295 295 295 294 294 295 295 295 295 294 294 293 293 293 294 294 294 294
299 299 299 298 298 298 298 298 299 298 298 298 298 298 298 298 298 299 298 298 298 298 299 299 299 298 298 298 298 297 297 297 297 297 297 297 297 296 296 295 295 295 296 296 295 294 293 293 293 292 292 292 292 292 292 292 291 291 291 292 292 292 292 293 293 293 294 294 295 295 295 294 294 294 294 294 294 294 294 294 294 293 293 294 294 293 293
298 298 298 298 298 298 298 298 298 298 298 298 298 298 298 297 298 298 298 298 298 298 298 299 298 298 298 298 298 297 297 297 297 296 296 296 296 296 296 296 296 296 296 295 294 293 293 293 293 292 292 292 292 292 292 292 291 291 291 291 292 292 292 293 293 292 292 292 293 294 294 294 294 294 294 293 293 294 294 294 294 293 293 293 293 293 293
298 298 298 298 298 298 298 298 298 298 298 298 298 298 297 297 297 298 299 298 298 298 298 298 298 298 298 298 297 297 296 296 296 296 296 296 296 295 296 296 296 296 295 295 294 293 293 294 293 293 292 292 292 292 292 292 291 291 291 292 292 292 292 292 292 291 291 291 291 291 291 292 293 294 294 294 293 293 293 294 294 294 294 293 293 293 293
Wind_Speed
12 12 11 11 12 10 10 11 10 10 10 11 9 5 3 3 4 4 7 10 8 5 6 7 6 7 7 7 8 9 9 10 10 10 12 13 12 12 13 12 12 12 12 13 17 19 20 22 22 21 21 22 24 27 28 28 28 25 22 19 15 11 7 5 4 6 11 15 17 22 28 31 29 26 26 27 28 27 27 26 26 26 27 26 23 23 23
11 11 12 12 13 12 11 11 10 9 11 11 9 8 9 10 9 8 11 13 9 5 6 6 6 6 6 6 8 10 11 11 11 11 12 12 12 12 12 12 11 11 12 14 17 18 20 21 22 21 22 23 24 27 29 28 28 26 24 22 19 15 12 7 4 3 9 14 14 19 28 33 34 31 28 28 28 28 29 28 26 27 27 26 24 24 24
6 8 11 12 13 14 13 11 9 8 9 11 9 7 7 9 9 10 11 11 7 4 5 6 6 6 6 8 10 11 11 11 10 11 11 11 11 11 11 11 10 10 12 15 17 19 20 21 21 21 21 23 24 27 29 28 27 26 24 24 22 19 15 8 3 3 9 14 13 17 27 32 33 31 29 29 28 28 28 27 27 28 27 27 28 27 25
2 4 10 12 12 14 13 10 10 9 8 7 7 6 6 4 6 8 8 6 4 2 4 6 7 8 9 11 11 10 9 10 10 9 10 10 10 10 10 10 9 9 11 14 16 18 19 20 21 21 22 23 24 26 27 27 26 25 25 25 24 22 18 9 2 5 10 13 13 18 27 30 30 28 27 27 26 27 28 28 30 31 29 29 29 28 26
2 4 7 8 7 8 6 5 5 4 5 7 7 7 9 7 3 4 4 3 4 4 4 6 8 9 10 10 9 8 7 8 8 8 8 9 8 8 8 8 8 9 10 13 16 17 19 20 20 21 21 22 23 23 24 25 26 26 26 27 27 26 23 15 8 6 6 12 17 23 27 27 27 25 24 25 25 27 31 32 32 33 32 31 30 28 27
4 5 2 4 4 3 1 3 2 2 5 8 9 8 9 9 6 5 5 5 6 5 5 7 8 9 9 10 9 7 6 6 7 7 7 7 7 8 8 7 9 11 12 15 16 18 19 20 21 22 22 22 22 24 25 26 27 27 27 28 28 29 29 24 18 11 1 9 17 25 27 24 23 24 26 26 24 27 33 34 33 34 32 31 29 27 26
4 2 3 4 2 2 2 2 5 8 9 11 12 11 11 9 8 8 8 7 7 8 7 8 8 9 9 9 9 9 7 6 6 7 7 8 8 7 7 8 10 12 14 16 17 18 18 19 21 23 23 23 24 26 27 27 28 27 28 30 30 30 31 31 27 20 11 4 7 16 21 23 22 23 28 28 22 24 32 33 32 33 31 29 28 25 23
3 2 3 2 3 3 3 3 4 6 5 6 8 9 9 9 6 6 7 7 8 8 8 7 7 7 8 8 8 8 8 7 6 6 6 7 7 7 8 9 11 13 14 15 16 17 17 19 20 21 22 23 25 26 28 28 27 27 29 32 32 31 31 32 32 30 23 15 10 8 12 20 25 23 26 29 26 25 30 31 30 31 29 27 26 24 22
3 3 3 3 4 3 2 1 1 2 2 2 1 4 5 7 7 4 6 8 8 7 8 7 6 5 7 7 7 8 8 7 7 7 8 9 10 11 13 14 14 15 15 15 17 18 19 19 19 19 20 21 24 27 29 28 28 29 31 32 32 31 31 31 32 33 31 27 22 18 14 16 23 25 25 28 29 28 29 29 28 29 28 26 25 23 22
2 4 4 3 3 2 2 1 2 2 3 3 2 3 3 4 6 5 4 7 8 7 6 6 5 2 5 6 4 6 7 7 8 9 12 14 15 16 17 18 18 18 18 18 19 20 21 21 19 18 18 20 23 26 26 26 27 30 31 30 30 31 31 30 30 32 33 32 30 28 25 20 19 25 28 28 29 30 30 29 27 27 28 27 25 23 22
2 4 3 2 1 1 1 1 4 4 4 4 2 1 2 1 4 5 3 4 5 4 3 4 3 1 3 4 2 5 5 7 9 9 11 15 17 18 20 19 18 20 20 21 22 23 23 23 21 19 18 20 22 22 22 23 25 27 28 28 28 29 30 30 30 31 32 33 33 33 31 25 20 23 30 31 29 30 31 29 27 28 29 29 27 25 24
3 4 3 1 1 0 1 2 4 4 4 3 0 1 1 1 3 4 3 3 2 1 1 1 2 2 3 4 0 4 5 8 11 12 12 14 16 18 20 20 19 20 21 22 23 23 23 23 23 22 20 20 21 19 18 20 23 24 25 26 27 28 29 31 32 32 33 34 34 33 32 28 24 22 28 33 31 31 31 29 28 29 30 30 30 28 26
4 4 3 1 1 1 1 3 4 4 3 1 2 2 1 3 4 4 4 3 2 3 4 3 3 3 4 5 2 4 7 9 11 13 14 15 16 17 19 21 21 20 21 22 22 23 24 24 24 24 23 23 22 19 17 18 19 20 22 25 27 28 28 30 31 31 32 33 33 33 31 29 26 24 26 30 30 30 31 29 29 31 31 32 32 30 28
2 3 3 2 1 1 2 3 3 2 0 2 2 1 3 5 5 5 6 6 5 7 7 6 5 5 5 5 3 4 6 6 8 11 14 15 17 18 18 20 21 21 21 22 23 23 24 25 25 24 24 25 23 21 18 16 15 17 20 23 25 26 26 27 28 29 29 30 31 32 31 31 29 27 26 27 27 28 29 28 29 31 31 31 32 31 29
2 3 3 2 2 1 4 3 2 2 1 3 4 5 6 6 6 7 7 7 6 8 8 8 7 5 5 5 4 4 5 5 6 8 10 11 12 14 14 15 16 17 18 19 20 21 22 23 24 24 24 24 24 23 21 17 14 14 16 18 21 24 24 25 25 26 26 26 26 27 27 29 30 29 27 26 25 25 25 27 29 30 29 29 30 30 29
1 3 2 2 2 3 5 1 2 3 3 4 6 6 6 6 5 5 6 6 5 7 8 8 6 6 5 5 4 4 3 4 4 6 7 8 8 9 9 10 11 13 14 14 15 17 18 20 21 22 23 23 24 24 22 17 15 16 16 15 17 19 21 22 23 23 24 24 24 23 22 23 25 27 27 27 26 24 23 24 25 25 24 27 28 27 26
3 4 3 4 4 5 6 6 6 7 7 6 6 7 7 5 4 4 5 6 5 6 7 7 6 5 4 4 3 3 2 2 2 3 3 3 3 4 5 7 9 10 12 12 13 14 16 17 17 18 20 21 23 24 22 17 15 17 18 17 15 16 17 19 19 20 21 23 23 22 20 20 22 22 23 25 26 24 22 21 21 21 22 24 25 23 22
7 7 6 6 7 7 8 8 7 7 7 6 6 8 7 5 4 4 4 5 6 5 6 6 5 4 4 4 3 3 2 2 1 1 2 3 2 2 3 4 6 8 10 11 12 13 14 16 16 16 16 17 19 21 20 18 17 18 20 20 17 14 14 15 15 16 18 19 20 21 20 20 21 20 20 21 21 21 21 21 21 21 21 21 21 19 17
4 5 4 5 8 9 9 8 8 8 8 6 6 6 6 6 6 5 5 6 7 6 6 6 5 5 4 4 3 3 3 3 3 3 5 6 6 5 6 6 6 8 8 9 11 11 11 14 16 16 14 13 14 16 17 17 17 18 20 21 19 16 13 12 12 13 14 15 17 17 17 18 19 19 18 18 18 17 17 17 17 17 16 15 15 14 12
5 6 6 6 8 7 6 6 7 6 7 7 6 6 7 7 7 7 8 8 7 6 5 5 5 4 3 3 3 3 3 4 5 5 6 7 7 8 8 8 9 10 9 9 11 12 11 12 13 12 11 11 12 13 14 14 14 16 18 19 21 19 16 11 10 11 13 14 15 15 15 15 15 15 14 14 14 13 12 11 10 11 11 10 10 9 8
7 7 8 9 8 6 4 4 5 6 6 7 6 6 6 7 6 6 7 7 7 7 6 6 5 4 3 4 4 3 4 6 7 7 7 8 9 10 10 10 11 11 10 8 9 11 13 14 11 7 8 10 10 11 13 13 13 14 16 17 20 21 18 14 9 8 10 13 14 15 16 15 15 14 13 13 13 13 13 12 11 11 11 11 11 10 9
5 5 8 8 7 5 3 4 6 6 6 7 7 6 5 5 5 5 5 5 6 8 8 8 6 4 5 7 7 7 7 9 10 10 9 9 10 11 11 10 9 10 12 12 12 14 17 19 13 5 4 8 8 8 11 12 13 14 15 18 20 20 18 16 12 6 7 11 12 13 15 16 17 17 15 14 14 14 15 14 14 13 13 12 10 10 11
5 9 9 6 5 6 6 6 7 7 7 7 8 7 7 6 7 8 6 5 5 6 8 10 9 7 8 9 9 9 11 12 12 12 12 11 11 10 7 6 9 15 17 17 18 19 21 21 15 6 2 5 6 6 8 9 11 13 15 18 20 18 17 18 16 10 7 8 9 10 12 15 16 18 18 17 16 15 15 14 14 15 15 15 12 11 12
7 9 8 6 6 7 8 8 8 8 10 10 7 7 8 9 11 13 11 9 9 7 8 12 13 12 12 12 11 11 13 13 13 12 10 6 3 2 6 9 12 15 16 16 18 19 20 21 17 7 1 3 5 5 7 8 8 11 14 16 17 17 17 18 18 15 11 9 7 7 8 11 14 16 18 19 18 16 15 15 15 16 16 15 15 14 14
7 7 7 8 8 8 8 9 9 10 14 13 9 9 11 13 14 14 13 12 13 11 10 12 15 16 16 14 13 14 14 12 7 3 3 7 9 10 12 12 12 12 13 14 16 17 18 20 19 12 6 5 5 5 6 7 7 10 13 14 14 15 16 16 16 16 15 13 12 9 6 6 8 12 16 19 20 18 17 17 18 19 18 17 17 16 16
8 8 8 8 8 7 8 7 5 8 14 15 11 12 16 17 17 17 17 17 17 16 15 15 15 16 17 17 15 15 11 3 7 11 12 13 13 12 12 11 10 10 11 11 13 14 15 17 17 15 12 10 7 4 4 6 6 7 10 11 12 13 13 14 14 13 13 13 15 14 11 7 4 7 12 17 19 20 20 20 20 20 19 18 17 17 16
8 9 10 9 7 7 8 8 8 12 18 18 15 16 19 21 20 19 19 18 18 18 18 17 15 14 16 17 13 7 5 11 16 14 12 12 12 10 10 10 10 9 9 9 10 11 13 14 15 14 13 12 10 6 3 3 4 5 6 7 9 11 11 11 11 11 11 11 12 14 15 13 8 6 11 15 17 19 20 20 19 17 15 14 13 13 13
7 7 8 8 7 7 8 10 12 15 19 20 18 18 19 18 16 14 13 13 14 15 14 15 15 14 13 12 8 10 13 15 15 12 11 10 9 8 8 9 10 9 8 8 8 10 11 12 12 13 12 12 11 7 4 2 2 3 4 4 6 9 10 9 9 8 8 9 10 12 14 15 12 9 11 14 15 17 18 18 17 15 12 10 9 8 10
5 6 7 7 8 9 9 8 9 9 11 14 15 15 13 10 7 6 5 7 9 9 8 11 15 13 8 7 11 16 17 15 13 11 10 8 6 6 7 8 8 8 7 8 10 12 12 10 10 11 12 12 11 8 5 3 1 2 4 3 4 6 7 8 8 7 6 7 8 10 13 14 14 13 12 11 13 15 16 15 14 13 11 9 9 9 11
5 6 7 7 9 10 9 7 6 5 6 9 10 10 11 11 7 4 4 5 6 4 4 7 11 9 9 12 16 18 17 14 12 11 9 6 5 5 6 8 8 8 8 10 12 14 11 8 8 10 10 11 11 9 6 3 2 2 3 3 4 5 5 6 8 8 7 5 5 8 11 13 14 16 16 13 12 13 14 12 11 11 11 11 11 12 13
7 8 8 7 8 9 6 5 5 4 5 9 10 9 10 10 7 4 5 8 10 8 6 9 12 12 13 16 16 15 14 12 11 9 8 5 4 4 5 7 8 8 9 11 14 13 8 6 8 9 8 9 10 9 6 2 2 3 3 2 3 4 4 5 7 8 8 5 4 5 7 9 11 13 14 14 14 14 14 12 11 11 11 11 11 11 11
7 7 7 5 5 6 5 4 4 5 6 9 9 8 8 10 9 7 7 9 11 11 10 12 15 15 15 15 14 12 12 10 8 7 6 4 2 3 4 6 7 8 9 11 12 8 5 6 9 10 9 8 8 7 5 3 2 4 4 2 3 4 3 4 6 9 10 5 2 6 6 7 9 9 9 10 12 13 13 12 12 12 12 12 11 10 10
7 5 5 4 4 5 5 4 5 6 5 6 9 11 12 14 13 11 9 10 11 12 11 12 14 16 15 13 12 10 9 8 7 6 3 1 1 3 4 6 7 8 10 10 8 5 5 8 11 11 10 9 6 5 5 3 2 5 4 2 3 4 4 4 5 9 10 4 5 8 7 7 7 7 7 9 10 11 11 11 12 13 14 13 13 12 11
9 7 7 7 7 7 7 5 4 4 4 5 10 15 15 14 14 13 11 11 12 11 11 12 14 15 13 10 8 7 6 6 6 4 2 2 3 4 5 6 7 8 9 8 4 3 6 10 10 9 9 7 4 3 3 1 4 4 2 1 2 4 5 4 5 10 9 1 7 9 7 6 6 6 7 8 9 9 10 11 12 14 15 15 15 13 11
13 11 11 12 12 12 12 9 7 7 6 6 9 13 13 13 14 12 10 10 10 9 10 11 12 11 10 8 6 4 4 5 4 3 4 4 5 6 7 7 9 10 9 8 3 2 6 9 8 6 8 8 5 4 4 5 5 2 2 3 5 6 4 3 7 10 6 4 10 9 8 7 6 6 6 7 7 7 9 11 13 14 14 14 13 11 9
15 13 12 14 15 16 15 14 11 10 9 9 12 13 13 14 14 13 10 9 9 8 10 11 10 9 8 7 5 4 3 4 4 4 6 6 7 7 8 9 10 10 10 9 4 2 4 8 6 5 7 8 7 6 5 4 4 4 5 6 7 3 2 1 8 9 1 10 11 9 8 7 7 6 6 6 5 6 8 12 15 14 13 13 12 11 10
17 16 14 15 16 16 14 12 10 9 10 12 15 17 15 14 13 11 10 9 9 8 8 9 8 8 7 7 6 4 4 4 4 5 6 7 7 8 9 9 10 10 11 9 4 2 3 6 6 5 6 7 4 3 2 2 2 3 5 7 5 2 6 2 9 5 7 12 10 9 9 8 7 7 6 6 5 5 8 12 15 14 12 12 11 10 10
16 17 16 14 13 13 10 8 6 7 9 12 14 16 15 14 12 10 9 8 7 6 4 3 3 6 8 8 7 6 5 5 5 6 7 7 8 8 8 10 11 11 9 6 2 3 4 5 4 4 6 7 4 2 2 2 1 2 4 6 3 3 3 4 8 3 8 11 10 9 9 7 7 7 7 6 6 5 6 10 13 13 12 11 10 9 7
13 14 13 12 11 11 9 8 8 9 11 14 16 16 15 13 10 9 8 6 4 3 2 2 1 3 8 9 8 7 6 6 6 7 7 7 7 7 8 9 10 7 3 1 3 3 4 3 3 4 6 6 5 3 2 3 3 2 1 3 2 1 2 4 5 2 4 9 11 10 8 7 7 7 6 6 6 5 5 7 10 11 10 10 9 7 6
12 12 12 13 12 10 8 9 10 11 13 15 15 14 13 12 10 8 6 5 3 2 1 1 1 3 5 6 6 6 5 5 6 7 6 6 5 6 6 6 4 1 3 2 2 3 3 3 3 4 4 5 5 4 2 2 2 3 2 1 2 3 5 5 5 6 6 8 13 13 9 8 7 7 6 7 6 5 5 6 7 9 9 9 8 7 5
12 11 12 12 10 8 7 8 9 9 10 12 13 12 11 10 8 6 5 3 1 1 1 1 1 2 3 3 3 4 4 5 5 5 5 5 5 5 4 3 3 4 2 1 2 3 4 4 5 4 3 2 3 3 2 2 2 2 2 2 4 5 7 9 10 11 8 7 14 15 12 10 8 7 7 7 6 6 5 5 5 7 9 9 9 9 6
13 12 12 12 11 9 9 8 8 9 11 12 11 10 9 7 5 5 4 3 2 1 1 1 2 2 3 4 4 4 5 5 4 4 5 5 6 6 6 5 6 6 3 2 3 3 4 4 5 5 4 2 1 3 4 4 3 2 2 2 4 6 9 11 12 11 7 6 12 15 13 11 10 8 8 8 7 7 7 5 4 6 9 10 10 10 6
14 14 14 14 12 10 8 8 9 12 12 9 7 5 4 4 4 4 4 3 3 3 3 3 2 2 3 3 4 3 3 2 3 4 4 5 7 8 8 8 7 7 5 3 3 3 3 2 2 4 4 4 3 4 5 5 5 5 4 5 5 7 11 12 9 9 6 5 9 13 13 13 12 10 9 9 8 8 8 6 4 5 7 10 11 10 7
14 14 14 12 9 6 5 7 10 11 8 5 4 3 2 2 4 5 5 4 2 2 2 2 2 2 2 2 3 3 2 4 5 5 5 7 8 9 9 9 8 8 6 3 3 2 2 3 3 2 4 5 6 6 6 6 7 7 7 7 7 9 11 11 8 7 6 5 6 8 11 13 13 11 10 10 9 9 8 7 5 4 6 9 11 11 8
14 13 11 8 7 6 5 7 8 6 4 3 2 0 1 1 4 5 4 3 1 1 2 1 2 2 2 3 4 3 4 5 4 4 4 6 6 5 5 6 8 8 6 3 2 1 2 3 3 3 5 7 7 8 9 8 8 8 7 7 8 9 10 8 5 6 7 6 6 5 7 10 12 12 10 10 10 9 9 8 7 5 6 8 10 9 6
14 12 7 5 5 6 5 4 4 4 4 4 4 3 1 4 6 5 3 1 0 1 2 2 3 3 3 3 2 3 6 5 3 2 3 4 3 2 3 7 10 8 4 2 1 1 1 2 3 4 5 7 8 9 10 10 9 7 6 6 7 7 7 6 4 4 7 7 6 5 5 6 10 12 12 10 10 10 9 9 8 7 6 7 7 5 4
13 11 7 5 6 6 5 5 6 8 10 10 10 8 7 6 6 4 2 1 0 2 2 2 2 2 2 1 2 5 6 5 4 3 4 4 4 3 4 7 9 7 3 1 1 2 2 3 3 4 5 6 6 7 7 7 7 6 4 5 5 5 5 7 7 4 5 7 6 5 4 4 7 11 13 12 11 10 10 10 10 8 7 7 6 6 6
12 11 9 8 7 6 5 6 10 13 13 10 9 8 7 6 5 3 2 1 1 2 1 2 3 3 3 1 0 2 3 3 4 4 5 6 6 5 5 7 9 8 3 2 5 6 7 7 5 4 5 5 3 3 3 3 3 3 3 4 4 3 4 7 7 3 2 4 4 4 4 4 6 9 12 14 13 12 11 10 11 10 9 9 7 6 7
12 10 7 5 4 4 7 12 15 14 12 9 8 7 5 4 4 5 4 3 3 3 4 6 6 5 3 1 1 1 1 2 4 5 5 5 3 3 4 7 10 8 5 7 7 7 8 9 8 6 4 2 1 2 3 3 2 3 4 4 3 3 4 5 4 1 1 2 1 2 4 5 5 5 7 11 14 14 12 11 10 11 12 11 8 5 6
10 9 8 5 3 4 9 14 16 14 11 10 9 7 5 4 4 6 6 5 5 4 6 7 6 4 3 2 2 2 1 2 2 3 3 2 2 2 4 6 8 7 8 8 7 6 6 8 8 7 4 2 2 3 1 1 2 3 4 3 2 2 4 3 1 1 1 2 2 2 3 4 5 3 4 6 11 15 15 12 10 10 11 11 9 6 6
9 9 10 9 7 6 8 12 13 12 10 10 10 8 5 4 5 6 6 6 6 6 6 5 3 2 1 1 2 1 1 2 2 1 2 2 2 3 4 7 8 9 10 10 8 7 7 7 8 8 6 4 5 6 5 4 4 4 3 3 1 2 3 2 2 2 4 3 3 3 2 3 3 3 3 3 4 10 14 15 13 11 10 10 9 8 8
8 9 10 8 6 6 8 10 11 10 10 10 9 6 4 4 6 7 6 5 5 5 5 3 3 3 2 1 0 1 2 1 1 1 1 2 3 2 2 4 6 7 9 10 9 8 7 7 7 7 8 8 7 6 6 5 4 4 4 4 3 3 3 3 3 3 4 5 6 6 5 4 3 3 3 2 1 3 8 12 13 12 11 9 8 7 7
Wind_Direction
82 88 84 81 82 73 62 61 56 48 46 51 59 45 18 80 109 134 122 100 93 91 73 59 48 41 42 43 43 43 42 37 32 32 33 31 28 26 27 25 21 17 13 12 13 12 13 11 7 4 4 5 6 8 10 10 11 12 6 359 357 353 339 300 261 218 195 188 186 189 186 179 181 191 192 187 185 182 177 177 178 175 171 171 171 172 172
80 87 89 85 83 76 58 47 49 58 57 53 49 44 56 75 85 98 101 94 84 76 70 61 48 40 44 52 48 45 43 37 32 35 36 31 28 27 27 25 22 19 15 14 14 14 14 13 10 5 1 2 5 9 12 13 14 16 14 10 8 5 358 343 310 261 201 193 189 186 183 179 179 185 191 189 184 180 177 177 177 173 172 174 175 174 174
68 84 92 87 86 83 66 40 31 50 58 47 36 32 48 73 88 92 92 91 84 63 64 63 47 36 46 55 52 48 44 37 34 36 33 30 30 29 27 25 22 19 18 17 15 14 13 12 11 8 4 4 8 12 14 15 16 18 20 20 20 16 8 2 346 280 216 205 200 190 185 181 178 180 188 189 182 177 177 177 173 170 171 173 173 174 175
80 108 109 106 99 87 70 42 27 38 53 52 44 33 26 48 111 112 93 89 102 105 88 69 49 46 51 52 51 51 47 38 35 36 32 29 30 29 27 25 21 18 17 16 16 14 12 12 12 11 10 9 11 14 15 16 18 21 25 27 28 26 19 10 324 267 228 211 206 197 190 183 178 180 185 184 179 177 176 172 168 167 168 168 167 168 170
131 173 140 120 102 83 63 16 11 44 74 78 65 40 29 32 71 109 94 106 129 125 104 77 58 53 54 52 50 47 43 35 29 32 32 29 30 30 27 23 20 20 19 17 18 17 14 16 16 15 16 16 15 17 19 21 24 26 27 29 31 32 28 21 358 320 239 202 197 197 193 185 181 183 183 176 171 169 167 163 162 162 161 159 159 160 162
151 195 158 76 61 74 43 326 353 103 105 90 77 48 38 47 63 86 96 112 120 112 98 90 78 67 60 56 51 42 39 35 23 19 21 21 25 27 25 22 19 23 25 23 23 22 20 21 23 25 24 23 23 27 28 28 29 29 30 31 33 34 33 31 23 11 337 191 193 196 195 191 186 184 180 173 167 162 160 158 156 155 153 153 153 153 155
142 152 59 61 74 114 117 48 75 100 103 94 84 62 44 50 75 98 104 112 119 114 106 99 91 82 72 60 48 37 33 35 29 23 18 15 21 26 26 25 22 24 29 29 26 24 22 24 29 31 30 29 31 33 34 33 32 31 33 35 33 34 36 36 34 31 38 88 171 187 189 187 184 178 170 165 159 153 153 153 151 149 148 148 149 149 150
107 61 40 100 135 130 121 89 85 101 100 88 81 61 36 27 48 96 114 117 120 120 116 109 101 97 85 63 43 27 20 23 26 27 23 17 16 18 21 22 21 22 26 28 26 25 25 27 30 32 33 35 37 38 38 37 35 34 37 37 34 33 35 39 40 38 38 49 75 114 152 163 164 160 154 152 150 146 144 143 143 142 141 141 142 141 143
99 95 66 96 123 143 142 95 41 49 31 359 71 88 50 20 21 60 114 126 134 138 132 129 130 116 86 62 32 8 8 15 21 29 33 28 19 15 17 20 21 21 23 26 28 29 30 30 29 30 34 38 42 43 41 39 38 38 39 38 36 34 34 39 45 45 42 44 55 67 79 117 137 139 135 135 138 139 137 132 131 132 131 129 130 130 131
84 113 107 114 152 190 156 116 323 347 3 340 4 107 97 24 12 26 95 131 147 156 161 165 168 130 64 59 24 352 358 8 13 23 31 31 28 24 23 22 21 22 23 25 28 30 32 32 31 32 36 40 44 46 44 41 41 42 41 37 37 38 37 39 46 52 51 47 49 57 58 65 96 117 121 121 124 129 129 124 120 120 121 118 116 116 117
105 117 118 137 191 217 158 264 298 324 342 330 344 104 139 68 17 13 55 113 132 153 194 200 178 123 83 90 16 325 341 8 16 18 22 25 27 27 27 25 23 24 26 28 29 30 30 30 33 36 38 41 45 45 44 45 46 46 44 41 41 42 43 44 47 52 57 56 53 56 57 52 62 92 107 112 114 117 118 116 112 111 111 110 105 101 102
104 104 105 100 105 265 297 290 297 320 330 324 335 178 194 101 37 17 49 91 100 112 170 126 94 96 120 130 126 321 353 26 30 28 24 23 24 23 24 25 25 27 29 29 28 26 25 28 34 37 38 41 42 42 43 48 50 50 50 49 50 50 49 50 51 51 56 60 60 61 61 56 54 71 94 104 107 108 108 108 106 104 103 101 97 92 91
82 93 108 100 96 124 319 298 289 304 319 281 161 183 174 94 65 47 70 83 72 71 76 79 78 74 97 120 113 21 26 32 31 31 32 34 32 29 27 26 27 28 28 27 28 27 26 28 31 34 37 40 40 41 44 48 51 55 57 56 56 55 54 53 54 53 53 58 62 65 68 67 60 61 79 93 99 103 105 104 100 98 97 95 92 88 85
84 99 105 98 112 80 336 298 281 306 291 186 160 104 101 100 90 83 82 83 87 88 84 87 100 106 103 104 89 46 40 39 32 30 33 36 36 34 32 30 29 28 26 27 29 28 28 29 29 32 35 37 38 39 41 45 52 58 60 60 58 56 55 54 54 54 54 56 60 63 69 74 70 63 70 83 90 95 101 102 98 94 92 91 90 86 83
86 80 81 123 153 337 324 294 270 353 29 153 130 101 98 99 98 98 91 85 91 98 98 101 108 112 103 88 80 70 58 51 42 35 37 41 42 40 35 31 30 30 29 29 29 28 28 29 30 31 32 33 32 30 30 36 48 54 57 61 63 61 59 56 54 55 56 57 59 61 65 72 74 68 69 79 87 91 95 96 94 92 91 89 87 86 84
101 93 89 113 101 357 346 15 107 59 66 115 123 112 108 102 99 101 95 91 95 101 108 113 108 102 99 92 89 85 68 57 56 53 50 51 54 51 43 36 32 30 26 26 30 32 32 30 29 29 30 30 27 24 24 30 42 51 56 63 67 67 65 62 59 57 56 57 60 62 62 67 71 70 69 74 82 88 90 90 89 90 90 90 87 86 87
85 96 99 94 78 43 40 66 85 84 82 90 102 107 110 107 100 100 102 103 102 101 106 107 104 108 115 112 104 105 109 103 84 72 62 50 50 51 42 36 33 27 20 17 21 28 31 30 29 27 28 30 29 26 25 28 35 44 51 58 66 71 71 69 66 64 62 60 60 61 62 63 65 67 67 69 72 77 83 90 94 95 92 90 88 85 84
91 80 83 96 94 82 75 76 83 90 91 91 94 98 102 104 103 106 116 118 116 114 115 115 121 136 141 133 138 162 181 183 178 208 267 295 326 355 1 11 17 13 12 12 12 18 26 28 26 21 18 24 30 29 28 28 31 37 42 48 56 65 71 73 72 70 71 71 68 67 66 65 65 66 68 69 68 69 71 78 90 98 96 89 83 78 76
106 83 92 108 104 102 100 97 96 95 92 93 96 102 113 124 126 129 132 128 125 129 136 139 145 156 159 156 175 204 206 203 220 247 270 288 301 307 314 328 342 346 350 351 348 353 8 19 20 17 13 21 34 36 31 27 28 30 33 39 45 50 59 69 72 71 75 79 79 79 78 76 75 71 68 69 69 67 66 68 79 91 94 87 80 75 77
95 103 119 114 99 99 102 103 109 111 110 113 118 121 126 132 134 136 137 136 137 143 153 154 150 153 169 182 194 226 239 235 239 252 268 284 295 300 306 315 322 325 329 328 327 330 344 5 18 24 25 32 42 42 34 28 25 21 20 27 35 39 44 54 67 74 77 79 82 87 89 90 91 89 86 84 81 79 78 80 87 98 107 109 106 100 100
100 110 125 118 98 85 77 98 120 132 134 132 127 122 128 133 134 136 141 144 149 159 168 167 156 157 193 216 221 241 261 254 250 256 267 280 289 296 309 320 325 334 344 342 332 333 344 0 17 38 46 44 45 41 35 33 32 25 17 21 29 33 36 44 57 76 82 80 80 85 90 93 94 95 98 102 104 103 102 102 105 112 119 125 127 127 124
120 141 150 142 124 120 148 160 148 142 141 134 127 127 137 145 151 153 149 149 158 170 178 177 170 178 216 230 230 240 256 259 258 259 263 273 285 296 310 324 342 11 26 22 13 8 7 10 15 29 49 47 45 37 32 33 35 33 27 28 32 34 38 48 57 74 91 86 83 86 92 96 96 94 93 93 96 102 105 105 107 108 109 111 117 123 120
143 160 163 149 121 133 161 167 154 151 150 142 143 155 161 166 176 175 164 159 172 191 200 201 201 210 223 225 225 239 254 257 256 258 262 273 286 298 318 355 24 35 35 29 25 22 19 19 18 10 25 42 38 27 24 30 36 33 28 30 37 43 50 57 63 74 93 97 93 92 98 103 105 104 100 92 88 91 96 102 105 106 107 109 110 111 110
132 149 152 136 126 144 166 169 163 165 164 156 156 172 175 180 188 186 181 183 187 192 206 213 215 221 228 229 228 236 250 258 264 267 265 267 283 14 51 48 40 36 33 31 29 25 23 24 24 18 359 23 20 13 14 24 36 34 28 32 41 47 51 54 60 69 80 89 95 100 108 111 110 111 108 102 96 92 93 96 99 99 100 101 100 99 97
127 141 141 136 142 153 163 163 164 171 173 169 169 180 185 189 192 192 193 197 199 196 200 214 221 225 231 237 236 239 251 265 273 262 133 106 93 78 65 52 37 31 30 31 30 28 25 24 23 22 20 11 0 360 9 18 30 34 35 41 47 48 46 45 49 58 68 74 75 78 91 112 118 118 116 111 108 105 101 100 100 98 96 94 93 92 90
118 123 119 118 130 142 145 150 168 186 187 182 177 182 191 193 194 198 203 207 208 208 208 214 222 224 229 235 237 239 246 214 112 112 106 94 82 71 62 50 35 29 28 29 29 25 19 16 16 17 17 11 357 348 4 16 23 32 38 47 50 45 39 39 42 46 53 62 68 69 70 75 109 136 129 123 119 115 109 105 102 100 96 94 94 91 87
108 112 110 109 120 142 154 166 182 190 191 188 183 186 194 195 196 202 210 214 216 216 217 221 223 219 222 226 223 206 149 117 114 111 102 91 81 71 60 46 36 35 34 30 25 15 8 11 15 16 14 8 358 344 333 349 7 19 28 37 40 33 31 36 42 45 49 55 61 65 68 68 78 127 145 140 129 118 113 110 107 101 97 96 98 96 89
110 118 121 126 145 165 171 170 170 175 182 186 188 191 193 193 195 201 212 223 227 226 223 218 210 201 206 212 186 133 119 120 119 113 104 97 87 71 55 45 43 45 39 26 15 2 356 1 8 12 14 10 360 344 313 293 332 357 359 8 19 21 28 40 46 51 60 59 56 63 71 70 75 103 141 151 140 122 114 111 105 97 93 92 94 97 100
128 127 121 130 146 147 144 147 154 163 169 173 179 182 176 170 174 184 194 208 219 226 227 211 199 191 181 165 146 135 129 128 127 122 115 106 91 66 47 40 41 41 29 15 5 357 349 344 347 355 5 9 2 345 318 286 272 326 341 357 15 20 34 48 48 47 56 54 51 66 78 80 84 94 111 136 144 135 125 113 99 90 91 94 97 105 113
143 131 120 126 133 131 132 146 157 157 144 141 143 143 135 127 123 127 127 124 130 144 183 192 186 173 147 140 143 142 140 138 137 133 126 113 91 58 33 25 24 21 15 8 360 355 349 339 333 337 348 0 4 350 324 292 234 258 310 346 16 32 49 54 43 41 50 57 66 77 80 84 94 99 99 106 124 138 138 126 105 95 98 101 101 107 116
141 134 132 138 139 135 140 151 142 118 111 117 114 108 108 109 107 109 97 84 81 87 115 142 147 145 145 145 145 144 144 144 140 138 135 119 87 48 23 15 8 3 4 1 356 353 350 341 339 337 335 346 356 351 336 315 219 226 254 312 352 17 47 49 36 33 35 44 87 107 95 93 101 106 106 109 118 131 141 137 120 108 108 106 100 103 119
123 120 118 118 124 126 127 124 114 112 117 119 118 120 125 123 122 126 118 100 92 96 112 131 143 147 146 144 144 146 148 148 147 145 140 119 70 22 6 2 357 358 2 360 355 354 353 343 342 338 325 321 331 337 337 335 266 235 234 268 325 343 12 29 24 18 11 12 127 146 136 124 118 114 117 123 126 132 138 136 123 115 112 107 100 100 112
119 119 117 110 103 109 118 134 143 143 141 136 138 142 140 135 134 134 127 114 110 114 122 134 147 150 146 144 148 152 153 159 164 159 144 105 4 341 343 345 343 347 357 358 353 354 2 353 343 335 325 314 309 317 331 333 250 216 212 235 319 329 337 353 9 7 1 358 166 159 147 139 134 129 130 135 137 138 137 131 122 117 112 106 103 102 104
148 163 166 163 155 141 140 149 145 122 95 108 137 143 141 138 137 136 129 119 117 125 136 143 148 152 153 153 154 154 162 178 185 185 203 270 302 311 319 327 328 334 351 359 349 341 2 360 352 352 354 350 332 326 348 93 156 178 197 232 303 309 315 335 3 2 356 354 167 162 154 147 143 139 137 138 138 137 136 133 128 122 116 111 108 104 97
145 144 144 142 136 129 126 128 136 133 116 117 140 148 146 143 142 138 131 125 124 136 149 151 152 160 165 163 159 169 199 217 223 237 257 276 294 300 303 316 323 330 348 1 346 313 353 357 354 8 24 29 35 50 80 108 114 85 3 336 324 314 307 339 0 356 347 176 167 166 165 160 156 151 145 144 142 140 141 141 137 132 128 124 120 114 104
126 120 119 118 112 107 106 110 119 126 126 135 152 155 149 146 146 141 133 127 126 140 157 162 167 177 180 174 174 191 221 234 247 267 279 285 292 295 299 311 319 323 337 348 337 290 341 350 346 358 17 29 51 74 82 77 50 24 1 341 333 316 201 350 356 355 162 169 169 172 171 164 159 157 152 150 154 148 143 146 146 142 140 140 135 128 122
116 112 109 109 106 104 102 102 108 111 114 128 147 155 153 151 150 144 134 126 122 132 155 173 189 201 200 193 199 215 223 228 249 280 290 289 292 296 300 309 316 318 325 331 321 270 322 338 339 345 356 7 37 74 63 26 17 18 6 354 355 129 149 45 359 10 162 171 175 179 176 169 164 159 151 149 157 148 141 149 153 150 147 147 141 129 122
112 108 106 106 108 108 103 98 106 115 114 121 138 149 149 145 141 137 131 125 120 123 135 158 203 218 212 205 212 233 244 249 265 280 282 283 290 296 303 313 319 317 316 313 277 256 305 328 336 345 355 0 5 357 337 324 306 352 11 13 31 120 129 12 9 50 174 185 188 186 185 183 175 166 157 157 163 151 138 151 160 159 153 150 142 127 121
122 117 110 105 105 107 105 101 106 115 117 121 130 138 138 136 135 133 130 125 122 118 99 79 103 212 216 218 232 254 262 258 261 267 273 280 284 286 302 321 323 313 292 216 212 249 286 312 320 333 355 8 10 352 323 302 278 265 353 30 26 349 316 343 5 7 221 212 203 197 196 194 184 175 167 164 166 155 137 150 166 169 163 155 146 132 123
134 127 117 111 107 102 96 103 115 125 130 134 138 141 140 138 137 136 136 133 119 86 50 58 122 179 206 225 248 266 264 255 256 262 268 271 263 265 296 324 329 187 160 163 224 247 262 272 287 314 346 11 13 2 346 317 284 255 240 295 316 307 306 312 326 329 296 235 214 209 207 198 192 190 181 173 170 164 151 151 170 182 181 171 165 155 132
133 126 119 115 110 98 95 107 117 124 133 139 141 142 142 140 138 140 151 168 156 71 25 341 218 203 222 243 260 272 275 274 271 261 252 242 231 236 262 272 194 171 171 273 250 248 264 265 268 286 311 359 16 358 338 328 307 266 248 264 283 299 311 307 303 310 308 245 217 215 211 202 200 203 197 189 186 183 169 157 169 190 192 186 179 173 160
128 121 111 104 99 99 103 104 101 107 121 131 134 135 140 144 145 148 159 176 185 186 320 303 276 274 273 265 266 288 299 292 273 243 229 226 224 229 240 232 203 191 201 239 248 272 293 278 261 265 273 283 339 330 317 317 315 304 314 324 308 315 328 320 297 287 286 242 217 217 214 205 201 204 203 200 201 200 193 178 167 183 192 193 186 174 158
120 113 108 105 104 105 105 97 98 110 122 130 132 138 156 174 177 174 177 185 203 232 255 257 266 303 300 267 262 286 295 257 216 210 219 228 236 244 253 253 228 202 197 224 257 283 323 326 278 261 265 274 288 298 304 310 307 302 315 326 315 321 339 336 303 265 247 222 214 216 214 206 200 202 205 204 204 208 210 206 190 180 191 201 200 185 161
123 118 115 112 109 112 116 112 113 118 129 141 144 145 166 208 210 205 200 196 211 257 268 254 262 291 293 271 284 294 245 201 191 194 213 229 241 250 257 254 232 205 196 222 255 268 345 1 347 294 276 281 283 279 282 293 298 294 298 308 313 324 337 335 305 253 220 192 192 209 217 213 207 203 205 206 208 214 219 218 208 188 188 202 208 203 195
130 125 122 123 132 143 134 117 117 128 148 161 153 13 333 201 184 185 180 168 134 41 42 25 329 307 291 297 307 290 223 201 197 204 224 244 261 268 254 225 203 188 185 208 240 257 339 347 337 311 293 288 281 269 265 270 280 284 290 305 324 336 342 337 296 244 217 190 172 182 210 220 218 214 213 213 214 217 219 218 213 204 196 195 198 202 211
139 136 136 148 158 154 142 132 139 144 125 97 69 37 41 152 153 147 139 132 64 26 28 3 329 311 302 304 288 206 184 186 205 238 242 250 271 274 211 188 182 177 175 186 193 182 341 337 332 321 309 300 290 279 271 266 266 273 289 317 338 348 358 3 339 264 233 215 191 168 173 207 220 220 218 218 219 220 220 218 213 204 195 192 200 216 236
147 149 155 160 154 150 159 169 150 119 99 88 84 90 109 130 133 123 118 142 330 347 340 327 309 285 270 260 207 187 184 189 209 230 225 220 227 237 215 195 188 182 172 171 198 225 258 285 309 325 325 320 314 303 289 275 261 257 282 326 341 345 354 1 355 321 235 213 202 183 168 186 216 222 223 222 220 219 221 221 216 204 192 195 216 239 239
147 146 147 150 151 151 150 138 121 111 107 106 108 112 121 132 135 130 125 103 43 26 54 120 131 134 131 119 160 218 216 217 224 226 214 209 220 246 246 216 198 188 188 298 294 275 262 260 275 308 330 338 1 28 11 336 301 281 301 320 330 336 339 344 348 339 219 204 208 212 203 194 204 222 230 230 226 222 222 222 218 211 204 206 220 243 248
148 147 151 166 185 165 136 128 127 128 131 134 129 123 120 127 138 141 129 91 61 73 119 132 132 128 112 68 359 319 287 257 246 232 215 207 224 264 243 207 197 204 251 296 298 282 263 255 257 273 301 319 101 89 41 6 338 319 313 308 310 336 337 336 344 349 215 214 241 281 262 232 216 227 242 240 234 228 224 222 219 215 212 211 215 233 246
141 136 133 132 132 142 144 143 145 148 151 147 137 123 100 90 117 136 128 102 86 103 127 131 126 113 86 42 354 332 295 251 242 230 218 224 262 267 228 208 212 239 272 283 279 272 269 264 257 257 265 250 198 197 227 282 284 285 280 258 244 321 329 319 316 345 309 275 276 298 278 240 227 249 286 266 242 232 227 224 219 212 211 215 219 221 218
138 129 124 114 101 110 144 155 156 156 154 153 150 141 118 102 120 135 131 116 111 122 133 138 136 123 96 18 353 353 187 197 204 207 232 270 297 284 247 235 241 258 270 271 268 273 286 285 269 253 241 225 217 224 235 253 273 274 246 207 214 312 307 277 274 327 332 316 298 288 265 230 236 273 319 323 259 236 231 229 222 213 211 218 224 221 216
140 139 140 136 125 127 146 163 173 174 167 162 161 156 141 127 133 141 142 136 130 132 143 165 183 181 179 190 92 113 142 198 259 278 293 325 346 345 272 242 249 262 267 264 264 273 290 299 287 259 235 224 227 236 238 241 249 249 230 222 243 283 285 271 286 312 320 316 306 294 280 264 262 273 291 331 347 242 233 230 226 224 226 230 231 228 226